Погода в Клине

Погода в Клине : погода сейчас, прогноз погоды и архив. Всё, что Вы хотите узнать о погоде в Клине!

Хотите узнать прогноз погоды в Клине? Тогда Вам сюда: Погода в Клине

Поиск расширенной информации на нашем сайте:

Другие новости

Новости СМИ2

Главная страница сайта

Новости сайта

02.10.2013

Напоминаем, что на нашем новом сайте вы можете получить высокодетализированные прогнозы погоды по пунктам России, СНГ и мира (включающие важные для авиации метеовеличины, такие как направление и скорость ветра, видимость, явления погоды, количество и форма облачности, нижняя и верхняя граница облачности), а также ознакомиться с разнообразными материалами по авиационной метеорологии и подборкой полезных ссылок на эту тему.

Сайт Метеоцентр.Азия посвящён разработке технологий оптимизации авиаметеорологического обслуживания, включая проектирование и перспективное создание нескольких автоматизированных авиаметеорологических систем:
- система выпуска высокодетальных прогностических карт явлений погоды для нижнего воздушного пространства по России и ближнему зарубежью;
- система верификации прогнозов TAF (выпускаемых синоптиками официальных АМСГ РФ и ближнего зарубежья) и AUTOTAF (выпускаемых сайтом Метеоцентр.Азия) - выявление ошибок, онлайн-сопоставление с фактической погодой METAR, автоматическое внесение коррективов в прогнозы при резком отклонении фактической погоды от прогноза, подсчёт оправдываемости прогнозов по элементам и в целом;
- система обработки, анализа и отображения авиаметеорологической информации для применения провайдерами метеорологической информации.

Рекомендуем: Купить куртки для беременных пальто и куртки для беременных купить.

Погода в Клине - сегодня

Время (UTC), дата Ветер
(°,м/с) 
Видим.   Явления Облачность Т
(°С)
Тd
(°С)
f(%) Тe
(°С)
Pmin
(гПа)
dP
(гПа)
Po
(мм)
O2
(г/м3)
Тmin Tmax R s Состояние
почвы
21 17.01.17 280 (З) 10 км    10/10 600 м 
[Sc]
-5.6 -6.7 92 -5  1033.7  0.7  759  313           
00 18.01.17 290 (З) 10 км    10/10 600 м 
[Sc]
-5.8 -8 84 -7  1034.9  1.1  760  314           
03 18.01.17 300 (СЗ) 10 км    10/10 600 м 
[Sc]
-6.1 -9 80 -6  1034.7  -0.2  760  314  -6.1    0.0     
06 18.01.17 260 (З) 10 км    9/9 600 м 
[Sc]
-6.8 -9.6 80 -9  1035.1  0.3  760  315  -6.8      27  равномерный
сухой снег
100% 
09 18.01.17 270 (З) 10 км    10/3 600 м средняя 
[Sc|Ac As]
-6.3 -8.6 84 -9  1035.4  0.3  760  314           
12 18.01.17 270 (З) 10 км  {снег}  10/10 600 м 
[Sc]
-5 -6.9 86 -8  1033.9  -1.4  759  312           
15 18.01.17 250 (З) 10 км    9/3 600 м средняя 
[Sc|Ac lent]
-4.8 -8.1 78 -8  1032.9  -1.1  758  312      0.0     
18 18.01.17 250 (З) 10 км    9/9 600 м 
[Sc]
-4.8 -7.6 81 -7  1031.5  -1.3  758  311    -4.6  0.0     
21 18.01.17 260 (З) 10 км    10/10 600 м 
[Sc]
-4.6 -7 83 -8  1030.3  -1.2  757  311           
00 19.01.17 250 (З) 10 км    10/10 600 м 
[Sc]
-4.8 -6.9 85 -8  1029.1  -1.2  756  311           
03 19.01.17 250 (З) 10 км    9/9 600 м 
[Sc]
-4.5 -7.2 81 -7  1027.1  -1.9  754  310  -4.9         
06 19.01.17 240 (ЮЗ) 10 км    10/6 600 м средняя 
[Sc|Ac trans]
-3.7 -7 78 -6  1024.8  -2.2  753  308  -4.9      27  равномерный
сухой снег
100% 
09 19.01.17 240 (ЮЗ) 10 км    10/6 600 м средняя 
[Sc|Ac trans]
-3.1 -6 80 -6  1022.7  -2.1  751  307           
12 19.01.17 250 (З) 10 км    10/10 600 м 
[Sc]
-2.6 -5 84 -5  1020.9  -1.7  750  306           
15 19.01.17 250 (З) 5{10}  10 км    10/10 600 м 
[Sc]
-2.7 -5.2 83 -6  1019  -1.9  748  305           
18 19.01.17 240 (ЮЗ) 4{10}  10 км    10/10 600 м 
[Sc]
-3 -5.2 85 -6  1016.5  -2.4  747  305    -2.5       
21 19.01.17 260 (З) 5-11{11}  10 км    10/10 600 м 
[Sc]
-2.9 -4.5 89 -6  1014.8  -1.7  745  304           
00 20.01.17 260 (З) 6-11{11}  10 км    10/10 600 м 
[Sc]
-2.5 -4 89 -6  1012.4  -2.3  744  303           
03 20.01.17 260 (З) 5-10{11}  10 км    10/6 600 м средняя 
[Sc|Ac trans]
-1.3 -3.6 84 -5  1011.2  -1.1  743  301  -3.1         
06 20.01.17 270 (З) 4{10}  10 км    6/6 600 м 
[Sc]
-1.2 -3.2 86 -4  1012  0.8  743  301  -3.1      26  равномерный
сухой снег
100% 
09 20.01.17 320 (СЗ) 10 км    9/9 600 м 
[Sc]
-0 -5.4 67 -2  1013.4  1.5  744  301           
12 20.01.17 300 (СЗ) 3{11}  10 км    3/3 600 м 
[Sc]
-0.4 -8.2 56 -2  1014.4  745  302           
15 20.01.17 290 (З) 10 км    ясно 
-4.6 -10.6 63 -4  1015.7  0.9  746  307           
18 20.01.17 270 (З) 10 км    ясно 
-6.9 -10.4 76 -8  1015.3  -0.5  746  309    +0.1       
21 20.01.17 260 (З) 10 км    10/0 средняя 
[Ac trans]
-5.4 -8.5 79 -8  1013.6  -1.5  744  307           
Время (UTC), дата Ветер
(°,м/с) 
Видим.   Явления Облачность Т
(°С)
Тd
(°С)
f(%) Тe
(°С)
Pmin
(гПа)
dP
(гПа)
Po
(мм)
O2
(г/м3)
Тmin Tmax R s Состояние
почвы

Для получения пояснительной информации подведите курсор к названию столбца.

ПОГОДА в Клине - архив

Всё, что Вы хотите узнать о погоде в Клине - удобно и подробно!

Выберите нужную дату (начиная с 1 января 2015* года) и нажмите кнопку "Найти".
Будут отображены архивные сводки погоды по пункту Клин, начиная с указанной даты.


Отображать данные в формате CSV (для использования в таблицах Excel)


Внимание! Наш архив погоды предназначен исключительно для личного некоммерческого использования в познавательных целях. Если Вам необходимы официальные справки о состоянии погоды (для производственных, юридических, коммерческих и т.п. целей), обращайтесь в органы Росгидромета.

*Примечание: данная дата относится к архиву по метеостанциям СССР (Россия, СНГ, Балтия).
Архив по метеостанциям Зарубежной Европы и Азии (кроме Китая) хранится 10 дней, по другим регионам земного шара (Китай, Африка, Америка, Австралия, Океания) - 1 день.

Клин - район местоположения метеостанции


Название, широта, долгота, высота метеостанции:
Клин 56.3°ш. 36.8°д. 167 м над ур. моря [Российская Федерация]

Дополнительная информация

В oтличие oт бoльшинства пoгoдных сайтoв мы публикуем пoдрoбную метеoинфoрмацию в детальнoм прoфессиoнальнoм фoрмате.

Характеристики температуры и влажнoсти вoздуха измеряются на высoте 2 м в тени вдали oт зданий и деревьев.
Скoрoсть ветра измеряется на высoте 10 м (на урoвне рoста челoвека скoрoсть ветра ниже в 1.5-2 раза). Если метеoстанция нахoдится в гoрoде или в лесу, тo скoрoсть ветра занижена на 2-4 м/с пo сравнению с oткрытым местoм. Скoрoсть ветра над акватoриями крупных рек и oзёр, а также на вершинах хoлмoв на 2-5 м/с выше, чем в oбычных услoвиях.
Атмoсфернoе давление в разных тoчках местнoсти мoжет значительнo oтличаться oт давления на метеoстанции, в зависимoсти oт услoвий рельефа (при пoдъёме на 10 м давление пoнижается примернo на 1 мм рт.ст.).